sat.trackr.live / text

‹ back to catalog

STARLINK-36546

NORAD 67459 · 2026-008Q

PAYLOAD ACTIVE UNKNOWN

§ Identity

Operator
Country
US
Launch date
2026-01-14
Launch site
AFETR
Launch vehicle
Mass (kg)
RCS (m²)

Purposes: comms

External: N2YO · Heavens-Above · Gunter

§ Orbital elements

Epoch: 2026-05-25T05:30:53.899200Z

Period
94.27 min
Inclination
42.9982°
Eccentricity
0.0001570
Mean motion
15.27590678 rev/d
Perigee alt
481.9 km
Apogee alt
484.1 km
Semi-major
6,861.2 km
B*
5.7339e-4
RAAN
133.3396°
Arg perigee
242.6008°
Mean anomaly
117.4684°
Rev number
2,127

§ Raw data

STARLINK-365461 67459U 26008Q   26145.22979050  .00015555  00000+0  57339-3 0  99992 67459  42.9982 133.3396 0001570 242.6008 117.4684 15.27590678 21273

JSON: /api/v1/satellites/67459 · /tle

For live sub-satellite position, see the globe view (requires WebGL).

§ Visibility from observer

Set your observer location to see the next 7 days of passes ≥ 10°. The values pass through the URL so the page stays shareable.

No JS? Fill the form by hand. The geolocation button needs JavaScript.